Regional Weather Roundup
Issued by NWS San Angelo, TX

Home | Current Version | Previous Version | Text Only | Print | Product List | Glossary On
Versions: 1 2 3 4 5 6 7 8 9 10 11 12 13 14 15 16 17 18 19 20 21 22 23 24 25 26 27 28 29 30 31 32 33 34 35 36 37 38 39 40 41 42 43 44 45 46 47 48 49 50
000
ASUS44 KSJT 101111
RWRSJT
WEST CENTRAL TEXAS REGIONAL WEATHER ROUNDUP
NATIONAL WEATHER SERVICE SAN ANGELO TX
500 AM CST WED FEB 10 2016

NOTE: "FAIR" INDICATES FEW OR NO CLOUDS BELOW 12,000 FEET WITH NO
SIGNIFICANT WEATHER AND/OR OBSTRUCTIONS TO VISIBILITY.

TXZ049-054-064>066-071>073-076>078-098-099-113-114-127-128-139-140-
154-155-168>170-101200
...LOCATIONS ACROSS WEST CENTRAL TEXAS...

CITY           SKY/WX    TMP DP  RH WIND       PRES   REMARKS
SAN ANGELO     CLEAR     32  22  66 CALM      30.31S
ABILENE        CLEAR     39  29  67 CALM      30.30S
DYESS AFB      CLEAR     38  28  68 SW7       30.29S WCI  32
JUNCTION       CLEAR     31  23  72 CALM      30.33R
SWEETWATER     CLEAR     45  22  39 SW9       30.32S
BROWNWOOD      MOCLDY    32  27  80 MISG      30.33S
COLEMAN        SUNNY     38  28  67 CALM      30.32S
SONORA         PTCLDY    28  23  80 CALM      30.36S
OZONA          FAIR      30  23  74 N3        30.35S
BRADY          NOT AVBL
$$

TEXAS PANHANDLE/OKLAHOMA PANHANDLE

CITY           SKY/WX    TMP DP  RH WIND       PRES   REMARKS
AMARILLO       CLOUDY    31  22  69 SW8       30.27F WCI  23
BORGER         CLEAR     34  24  67 W6        30.24F WCI  29
CANADIAN       CLOUDY    26  24  93 CALM      30.21F
DALHART        CLOUDY    32  18  56 W14       30.25F WCI  22
DUMAS          CLOUDY    30  21  68 SW10      30.24F WCI  21
GUYMON         NOT AVBL
HEREFORD       NOT AVBL
PAMPA          SUNNY     36  27  71 SW9       30.24F WCI  29
PERRYTON       CLEAR     35  28  75 SW9       30.19F WCI  27
$$

SOUTHERN PANHANDLE/SOUTH PLAINS/ROLLING PLAINS

CITY           SKY/WX    TMP DP  RH WIND       PRES   REMARKS
LUBBOCK        CLOUDY    27  17  66 W8        30.30F WCI  19
SNYDER           N/A     38  25  61 N7        30.31S WCI  32
CHILDRESS      CLEAR     33  24  69 S7        30.27F WCI  27
SEMINOLE       CLOUDY    35  22  58 W7        30.33S WCI  29
$$

PERMIAN BASIN

CITY           SKY/WX    TMP DP  RH WIND       PRES   REMARKS
MIDLAND        PTCLDY    37  24  59 W5        30.32S WCI  33
ODESSA         PTCLDY    40  23  50 W6        30.32F WCI  36
WINK           CLOUDY    30  20  66 N7        30.31F WCI  23
$$

FAR WEST/SOUTHWEST MOUNTAINS/TRANS PECOS

CITY           SKY/WX    TMP DP  RH WIND       PRES   REMARKS
ALPINE         CLOUDY    35  16  46 SW10      30.42S WCI  27
DRYDEN           N/A     42  20  41 NW8       30.30S WCI  37
EL PASO        CLEAR     37  18  46 NE5       30.34S WCI  33
FORT STOCKTON  CLEAR     41  22  46 W12       30.32S WCI  34
GUADALUPE PASS CLOUDY    46  15  28 SW7       30.37F
MARFA          CLOUDY    25  15  66 N6        30.39S WCI  18
PECOS          CLOUDY    30  22  74 W6        30.34S WCI  24
$$

DALLAS/FORT WORTH METROPLEX

CITY           SKY/WX    TMP DP  RH WIND       PRES   REMARKS
DFW AIRPORT    CLEAR     37  25  61 N3        30.32S
FTW MEACHAM    CLEAR     39  26  59 CALM      30.33S
DAL-EXECUTIVE  CLEAR     35  25  66 CALM      30.32S
GRAND PRAIRIE  CLEAR     38  27  63 CALM      30.35S
ADDISON        NOT AVBL
MESQUITE       SUNNY     35  24  64 CALM      30.34F
LANCASTER      SUNNY     30  22  70 CALM      30.35S
$$

NORTH CENTRAL TEXAS

CITY           SKY/WX    TMP DP  RH WIND       PRES   REMARKS
SHRMAN/DENISON SUNNY     34  23  63 CALM      30.33F
GAINESVILLE    CLEAR     30  24  75 CALM      30.34S
BRIDGEPORT     SUNNY     32  26  78 SW3       30.34S
DENTON         CLEAR     30  24  78 CALM      30.33S
WAXAHACHIE     SUNNY     34  28  78 CALM      30.35S
GRANBURY       SUNNY     32  28  83 CALM      30.35S
$$

WESTERN NORTH TEXAS

CITY           SKY/WX    TMP DP  RH WIND       PRES   REMARKS
WICHITA FALLS  CLEAR     32  25  75 SW8       30.29F WCI  25
VERNON         SUNNY     32  23  69 SW8       30.29F WCI  25
BRECKENRIDGE   SUNNY     37  27  67 SW7       30.31F WCI  32
COMANCHE       CLEAR     38  30  72 S5        30.33R WCI  34
$$

CENTRAL AND SOUTH CENTRAL TEXAS

CITY           SKY/WX    TMP DP  RH WIND       PRES   REMARKS
AUSTIN/BERGSTM CLEAR     32  29  88 CALM      30.34F
WACO           CLEAR     29  25  85 SW3       30.34S
HILLSBORO      SUNNY     33  24  69 CALM      30.34S
TEMPLE         CLEAR     32  29  88 NW3       30.35S
KILLEEN-GRAY   CLEAR     43  26  52 CALM      30.33S
FORT HOOD      CLEAR     40  27  61 CALM      30.32S
GEORGETOWN     CLEAR     34  25  69 CALM      30.35S
LAGO VISTA     FAIR      44  29  54 E6        30.34R
SAN MARCOS     CLEAR     39  28  65 N5        30.35R WCI  36
NEW BRAUNFELS  CLEAR     45  30  55 NE8       30.32S
RANDOLPH AFB   CLEAR     42  31  64 N7        30.33R WCI  37
SAN ANTONIO    CLEAR     47  30  51 N5        30.33S
STINSON        CLEAR     47  31  53 N7        30.31S
PLEASANTON     NOT AVBL
LA GRANGE      CLEAR     39  34  82 CALM      30.32F
GIDDINGS       SUNNY     39  31  73 CALM      30.38S
$$

EAST TEXAS

CITY           SKY/WX    TMP DP  RH WIND       PRES   REMARKS
PARIS          CLEAR     32  16  51 W3        30.32S
CLARKSVILLE    NOT AVBL
TYLER          CLEAR     36  23  59 W6        30.34R WCI  31
LONGVIEW       CLEAR     33  23  66 CALM      30.33R
PALESTINE      SUNNY     32  28  85 CALM      30.36S
NACOGDOCHES    CLEAR     39  21  48 N6        30.33S WCI  35
$$

TEXAS HILL COUNTRY AND EDWARDS PLATEAU

CITY           SKY/WX    TMP DP  RH WIND       PRES   REMARKS
LLANO          SUNNY     34  30  86 CALM      30.38R
HORSESHOE BAY  FAIR      34  31  88 CALM      30.34R
KERRVILLE      CLEAR     33  30  86 CALM      30.33S
FREDERICKSBRG  CLEAR     31  26  81 CALM      30.33R
ROCKSPRINGS    SUNNY     54  23  30 CALM      30.33F
HONDO          CLEAR     36  27  69 NE8       30.34R WCI  30
UVALDE         SUNNY     36  29  76 CALM      30.33R
DEL RIO        CLEAR     39  26  59 CALM      30.30S
$$

SOUTHEAST TEXAS

CITY           SKY/WX    TMP DP  RH WIND       PRES   REMARKS
COLLEGE STN    CLEAR     44  27  51 NE3       30.34S
CALDWELL       SUNNY     37  30  75 CALM      30.38S
CROCKETT       SUNNY     32  27  80 CALM      30.38S
BRENHAM        CLEAR     37  33  84 CALM      30.35S
HUNTSVILLE     CLEAR     38  27  64 CALM      30.34S
CONROE         PTCLDY    31  29  92 CALM      30.35S
HOUSTON BUSH   CLEAR     44  28  53 CALM      30.35R
HOUSTON HOBBY  CLEAR     48  28  46 N3        30.34S
PERLAND        CLEAR     44  32  62 CALM      30.37R
WHARTON        SUNNY     39  30  69 CALM      30.35R
$$

THE UPPER TEXAS COAST

CITY           SKY/WX    TMP DP  RH WIND       PRES   REMARKS
ORANGE         SUNNY     42  26  51 NW3       30.36R
PORT ARTHUR    CLEAR     40  31  70 NW5       30.35R WCI  37
GALVESTON      CLEAR     50  38  63 N10       30.36R
ANGLETON       CLEAR     40  35  83 CALM      30.35R
BAY CITY       SUNNY     39  38  97 CALM      30.34S
$$

TEXAS COASTAL BEND, RIO GRANDE PLAINS DEEP SOUTH TEXAS

CITY           SKY/WX    TMP DP  RH WIND       PRES   REMARKS
VICTORIA       CLEAR     37  35  92 N5        30.34R WCI  33
BEEVILLE       FAIR      47  35  62 W3        30.31S
ROCKPORT       CLEAR     47  39  74 W3        30.32S
PORT ARANSAS   SUNNY     55  44  67 SW8       30.32R
PORT LAVACA    SUNNY     43  37  81 SE5       30.33F
CORPUS CHRISTI CLEAR     42  31  64 SW3       30.32S
KINGSVILLE NAS CLEAR     43  36  76 W5        30.32S
COTULLA        CLEAR     39  26  59 N6        30.32S WCI  35
LAREDO         CLEAR     45  33  63 E5        30.32S
BROWNSVILLE    CLEAR     46  42  86 SW5       30.34S
PORT ISABEL    CLEAR     49  43  80 SW8       30.33S
HEBBRONVILLE   NOT AVBL
MCALLEN        CLEAR     47  39  74 CALM      30.34R
WESLACO        CLEAR     49  37  62 S5        30.33S
FALFURRIAS     SUNNY     44  34  67 CALM      30.32S
EDINBURG       SUNNY     41  35  79 SW3       30.34R
$$



USA.gov is the U.S. government's official web portal to all federal, state and local government web resources and services.